This is the latest recevied weather packets stored in our database for station/object PA5MB-15. If no packets are shown the sender has not sent any weather packets the latest 10 day(s).
| Time | Temp. | Humidity | Pressure | Rain* | Wind** | Luminosity | Snow |
|---|---|---|---|---|---|---|---|
| 1778064925 | 15.56° C | 60% | 1010.2 hPa | 0 mm | - | 52 W/m² | - |
| 1778064633 | 15° C | 61% | 1010.3 hPa | 0 mm | - | 65 W/m² | - |
| 1778064333 | 14.44° C | 63% | 1010.3 hPa | 0 mm | - | 51 W/m² | - |
| 1778064024 | 14.44° C | 63% | 1010.3 hPa | 0 mm | - | 50 W/m² | - |
| 1778063733 | 15° C | 62% | 1010.3 hPa | 0 mm | - | 57 W/m² | - |
| 1778063430 | 14.44° C | 63% | 1010.3 hPa | 0 mm | - | 69 W/m² | - |
| 1778063145 | 14.44° C | 64% | 1010.2 hPa | 0 mm | - | 53 W/m² | - |
| 1778062833 | 13.89° C | 65% | 1010.2 hPa | 0 mm | - | 58 W/m² | - |
| 1778062533 | 13.89° C | 67% | 1010.2 hPa | 0 mm | - | 47 W/m² | - |
| 1778062230 | 13.89° C | 67% | 1010.2 hPa | 0 mm | - | 27 W/m² | - |
| 1778061933 | 13.89° C | 67% | 1010.1 hPa | 0 mm | - | 27 W/m² | - |
| 1778061624 | 13.89° C | 71% | 1010.1 hPa | 0 mm | - | 37 W/m² | - |
| 1778061333 | 13.89° C | 73% | 1010.1 hPa | 0 mm | - | 23 W/m² | - |
| 1778061038 | 13.89° C | 73% | 1010.1 hPa | 0 mm | - | 25 W/m² | - |
| 1778060734 | 13.33° C | 74% | 1010 hPa | 0 mm | - | 29 W/m² | - |
| 1778060424 | 13.33° C | 74% | 1010.1 hPa | 0 mm | - | 19 W/m² | - |
| 1778060130 | 13.33° C | 75% | 1010.1 hPa | 0 mm | - | 22 W/m² | - |
| 1778059833 | 13.33° C | 76% | 1010.1 hPa | 0 mm | - | 22 W/m² | - |
| 1778059533 | 13.33° C | 76% | 1010 hPa | 0 mm | - | 20 W/m² | - |
| 1778059225 | 13.33° C | 74% | 1010 hPa | 0 mm | - | 18 W/m² | - |
| 1778058934 | 13.33° C | 74% | 1010 hPa | 0 mm | - | 38 W/m² | - |
| 1778058633 | 13.33° C | 74% | 1010 hPa | 0 mm | - | 31 W/m² | - |
| 1778058330 | 13.33° C | 73% | 1010 hPa | 0 mm | - | 27 W/m² | - |
| 1778058034 | 13.33° C | 75% | 1010 hPa | 0 mm | - | 33 W/m² | - |
| 1778057733 | 13.33° C | 75% | 1009.9 hPa | 0 mm | - | 33 W/m² | - |
* Rain latest hour (hover to see other rain measurements)
** Current wind speed in m/s (hover to see current wind gust speed)